QPF
0.08 0.09 0.10 0.09 0.08 0.07 0.05 0.04 0.03 0.03 0.05 0.06 0.05 0.04 0.05 0.07 0.08 0.07 0.12 0.09 0.04 0.02 0.02 0.02 0.02 0.02 0.02 0.02 0.01 0.01 0.01 0.02 0.03 0.06 0.10 0.11 0.10 0.10
0.10 0.11 0.11 0.10 0.08 0.07 0.06 0.04 0.04 0.04 0.04 0.04 0.04 0.04 0.04 0.04 0.04 0.05 0.09 0.07 0.04 0.02 0.02 0.01 0.01 0.01 0.01 0.01 0.01 0.01 0.01 0.01 0.03 0.05 0.08 0.09 0.09 0.10
0.12 0.11 0.09 0.06 0.06 0.04 0.03 0.04 0.04 0.04 0.04 0.05 0.06 0.07 0.07 0.07 0.07 0.09 0.10 0.09 0.08 0.05 0.03 0.02 0.01 0.01 0.01 0.01 0.01 0.01 0.01 0.02 0.03 0.05 0.09 0.12 0.13 0.13
0.10 0.08 0.05 0.03 0.02 0.02 0.02 0.03 0.04 0.05 0.05 0.07 0.08 0.08 0.09 0.09 0.09 0.10 0.09 0.10 0.12 0.10 0.06 0.04 0.03 0.02 0.02 0.02 0.02 0.02 0.03 0.05 0.06 0.09 0.12 0.15 0.18 0.19
0.06 0.03 0.01 0.01 0.01 0.01 0.02 0.02 0.03 0.04 0.06 0.08 0.08 0.08 0.09 0.08 0.08 0.10 0.11 0.15 0.15 0.12 0.09 0.06 0.04 0.03 0.03 0.02 0.03 0.05 0.07 0.09 0.11 0.15 0.18 0.21 0.24 0.26
0.02 0.00 0.00 0.00 0.00 0.00 0.01 0.01 0.02 0.03 0.04 0.04 0.04 0.04 0.04 0.04 0.05 0.07 0.10 0.15 0.16 0.13 0.12 0.10 0.09 0.07 0.05 0.04 0.04 0.06 0.12 0.18 0.22 0.25 0.31 0.34 0.35 0.34
0.00 0.00 0.00 0.00 0.00 0.00 0.00 0.00 0.00 0.01 0.01 0.01 0.01 0.01 0.01 0.01 0.02 0.04 0.06 0.09 0.13 0.12 0.12 0.13 0.14 0.12 0.10 0.08 0.08 0.10 0.18 0.29 0.38 0.44 0.47 0.50 0.50 0.48
0.01 0.00 0.00 0.00 0.00 0.00 0.00 0.00 0.00 0.00 0.00 0.01 0.00 0.00 0.00 0.01 0.02 0.03 0.03 0.04 0.06 0.09 0.12 0.16 0.17 0.19 0.17 0.13 0.11 0.11 0.19 0.38 0.54 0.61 0.66 0.64 0.59 0.54
0.01 0.01 0.00 0.00 0.00 0.00 0.00 0.00 0.00 0.00 0.00 0.00 0.00 0.00 0.00 0.00 0.02 0.04 0.04 0.05 0.05 0.06 0.08 0.12 0.15 0.20 0.21 0.16 0.11 0.11 0.15 0.25 0.42 0.54 0.58 0.62 0.62 0.55
0.00 0.00 0.00 0.00 0.00 0.00 0.00 0.00 0.00 0.00 0.00 0.00 0.00 0.00 0.00 0.00 0.01 0.03 0.05 0.07 0.08 0.06 0.06 0.09 0.12 0.15 0.15 0.13 0.08 0.08 0.10 0.14 0.22 0.32 0.41 0.45 0.48 0.46
0.00 0.00 0.00 0.00 0.00 0.00 0.00 0.00 0.00 0.00 0.00 0.00 0.00 0.00 0.00 0.00 0.00 0.01 0.02 0.05 0.07 0.07 0.05 0.07 0.11 0.14 0.16 0.16 0.11 0.08 0.07 0.08 0.11 0.15 0.21 0.26 0.28 0.26
0.00 0.00 0.00 0.00 0.00 0.00 0.00 0.00 0.00 0.00 0.00 0.00 0.00 0.00 0.00 0.00 0.00 0.00 0.01 0.01 0.04 0.06 0.05 0.06 0.08 0.12 0.16 0.18 0.16 0.13 0.11 0.09 0.08 0.08 0.10 0.13 0.14 0.12
0.00 0.00 0.00 0.00 0.00 0.00 0.00 0.00 0.00 0.00 0.00 0.00 0.00 0.00 0.00 0.00 0.00 0.00 0.00 0.01 0.02 0.04 0.05 0.06 0.07 0.09 0.13 0.17 0.17 0.15 0.14 0.15 0.13 0.11 0.09 0.10 0.11 0.10
0.00 0.00 0.00 0.00 0.00 0.00 0.00 0.00 0.00 0.00 0.00 0.00 0.00 0.00 0.00 0.00 0.00 0.00 0.00 0.01 0.02 0.04 0.05 0.05 0.06 0.07 0.08 0.12 0.17 0.16 0.15 0.16 0.18 0.19 0.19 0.17 0.13 0.12
0.00 0.00 0.00 0.00 0.00 0.00 0.00 0.00 0.00 0.00 0.00 0.00 0.00 0.00 0.00 0.00 0.00 0.00 0.00 0.01 0.01 0.01 0.02 0.02 0.04 0.06 0.08 0.10 0.12 0.15 0.16 0.17 0.19 0.23 0.24 0.22 0.19 0.16
0.00 0.00 0.00 0.00 0.00 0.00 0.00 0.00 0.00 0.00 0.00 0.00 0.00 0.00 0.00 0.00 0.00 0.00 0.00 0.00 0.01 0.01 0.01 0.01 0.02 0.04 0.06 0.08 0.10 0.13 0.15 0.16 0.17 0.19 0.24 0.29 0.28 0.24
0.00 0.00 0.00 0.00 0.00 0.00 0.00 0.00 0.00 0.00 0.00 0.00 0.00 0.00 0.00 0.00 0.00 0.00 0.00 0.00 0.00 0.00 0.01 0.00 0.01 0.03 0.04 0.05 0.08 0.10 0.12 0.14 0.16 0.17 0.16 0.17 0.18 0.21
0.00 0.00 0.00 0.00 0.00 0.00 0.00 0.00 0.00 0.00 0.00 0.00 0.00 0.00 0.00 0.00 0.00 0.00 0.00 0.00 0.00 0.00 0.00 0.00 0.00 0.01 0.03 0.06 0.04 0.06 0.09 0.10 0.11 0.13 0.13 0.12 0.11 0.10
0.00 0.00 0.00 0.00 0.00 0.00 0.00 0.00 0.00 0.00 0.00 0.00 0.00 0.00 0.00 0.00 0.00 0.00 0.00 0.00 0.00 0.00 0.00 0.00 0.00 0.00 0.01 0.03 0.05 0.02 0.03 0.06 0.08 0.10 0.10 0.09 0.09 0.09
0.00 0.00 0.00 0.00 0.00 0.00 0.00 0.00 0.00 0.00 0.00 0.00 0.00 0.00 0.00 0.00 0.00 0.00 0.00 0.00 0.00 0.00 0.00 0.00 0.00 0.00 0.00 0.00 0.02 0.04 0.02 0.02 0.03 0.05 0.05 0.07 0.08 0.05
0.00 0.00 0.00 0.00 0.00 0.00 0.00 0.00 0.00 0.00 0.00 0.00 0.00 0.00 0.00 0.00 0.00 0.00 0.00 0.00 0.00 0.00 0.00 0.00 0.00 0.00 0.00 0.01 0.02 0.04 0.04 0.02 0.00 0.01 0.01 0.03 0.05 0.07
0.00 0.00 0.00 0.00 0.00 0.00 0.00 0.00 0.00 0.00 0.00 0.00 0.00 0.00 0.00 0.00 0.00 0.00 0.00 0.00 0.00 0.00 0.00 0.00 0.00 0.00 0.00 0.00 0.01 0.02 0.03 0.03 0.03 0.01 0.01 0.01 0.01 0.03
0.00 0.00 0.00 0.00 0.00 0.00 0.00 0.00 0.00 0.00 0.00 0.00 0.00 0.00 0.00 0.00 0.00 0.00 0.00 0.00 0.00 0.00 0.00 0.00 0.00 0.00 0.00 0.00 0.00 0.00 0.01 0.02 0.03 0.05 0.07 0.03 0.00 0.00
MSLP
1009.88 1010.08 1010.24 1010.35 1010.39 1010.36 1010.27 1010.13 1009.96 1009.77 1009.59 1009.40 1009.22 1009.04 1008.87 1008.71 1008.58 1008.48 1008.42 1008.42 1008.48 1008.59 1008.74 1008.89 1009.03 1009.12 1009.16 1009.12 1009.02 1008.89 1008.74 1008.63 1008.58 1008.62 1008.79 1009.10 1009.54 1010.11
1009.67 1009.87 1010.03 1010.15 1010.20 1010.20 1010.15 1010.06 1009.94 1009.82 1009.68 1009.54 1009.39 1009.23 1009.06 1008.89 1008.73 1008.59 1008.48 1008.43 1008.44 1008.50 1008.61 1008.72 1008.83 1008.89 1008.88 1008.80 1008.64 1008.43 1008.20 1007.98 1007.82 1007.76 1007.83 1008.05 1008.44 1008.98
1009.60 1009.78 1009.94 1010.04 1010.10 1010.11 1010.09 1010.04 1009.97 1009.90 1009.81 1009.71 1009.60 1009.46 1009.30 1009.12 1008.93 1008.76 1008.61 1008.51 1008.47 1008.48 1008.53 1008.59 1008.65 1008.66 1008.60 1008.45 1008.22 1007.92 1007.59 1007.26 1006.99 1006.83 1006.80 1006.96 1007.30 1007.82
1009.68 1009.85 1009.99 1010.09 1010.15 1010.17 1010.17 1010.15 1010.12 1010.09 1010.05 1009.99 1009.91 1009.79 1009.64 1009.45 1009.25 1009.04 1008.85 1008.69 1008.59 1008.54 1008.53 1008.53 1008.52 1008.46 1008.33 1008.10 1007.79 1007.40 1006.97 1006.55 1006.18 1005.93 1005.83 1005.92 1006.23 1006.75
1009.91 1010.07 1010.19 1010.29 1010.35 1010.38 1010.40 1010.41 1010.42 1010.43 1010.42 1010.40 1010.34 1010.24 1010.09 1009.89 1009.67 1009.42 1009.19 1008.99 1008.83 1008.71 1008.63 1008.56 1008.47 1008.33 1008.12 1007.81 1007.41 1006.94 1006.42 1005.92 1005.48 1005.17 1005.02 1005.09 1005.38 1005.90
1010.27 1010.42 1010.54 1010.63 1010.69 1010.74 1010.78 1010.81 1010.85 1010.88 1010.90 1010.90 1010.86 1010.76 1010.61 1010.40 1010.15 1009.88 1009.61 1009.36 1009.14 1008.97 1008.82 1008.68 1008.51 1008.30 1008.01 1007.62 1007.15 1006.61 1006.04 1005.49 1005.01 1004.67 1004.51 1004.57 1004.87 1005.41
1010.72 1010.86 1010.98 1011.07 1011.13 1011.19 1011.23 1011.28 1011.34 1011.38 1011.42 1011.42 1011.38 1011.28 1011.12 1010.90 1010.63 1010.33 1010.03 1009.75 1009.49 1009.27 1009.07 1008.86 1008.64 1008.36 1008.01 1007.57 1007.06 1006.48 1005.88 1005.32 1004.84 1004.50 1004.36 1004.45 1004.77 1005.33
1011.20 1011.34 1011.45 1011.54 1011.60 1011.66 1011.70 1011.75 1011.81 1011.85 1011.88 1011.87 1011.82 1011.71 1011.53 1011.30 1011.02 1010.71 1010.39 1010.09 1009.81 1009.56 1009.33 1009.09 1008.83 1008.51 1008.13 1007.67 1007.13 1006.55 1005.97 1005.43 1004.98 1004.69 1004.59 1004.72 1005.07 1005.65
1011.67 1011.81 1011.92 1011.99 1012.05 1012.09 1012.12 1012.16 1012.19 1012.22 1012.22 1012.19 1012.12 1011.99 1011.80 1011.55 1011.27 1010.96 1010.64 1010.34 1010.06 1009.80 1009.56 1009.31 1009.04 1008.72 1008.33 1007.87 1007.36 1006.81 1006.27 1005.79 1005.41 1005.18 1005.13 1005.31 1005.70 1006.28
1012.09 1012.23 1012.32 1012.39 1012.42 1012.44 1012.45 1012.46 1012.46 1012.45 1012.42 1012.36 1012.26 1012.10 1011.90 1011.65 1011.36 1011.06 1010.76 1010.48 1010.21 1009.97 1009.74 1009.51 1009.24 1008.94 1008.58 1008.16 1007.69 1007.20 1006.73 1006.32 1006.01 1005.86 1005.88 1006.09 1006.49 1007.07
1012.44 1012.58 1012.67 1012.71 1012.73 1012.72 1012.70 1012.67 1012.63 1012.58 1012.51 1012.42 1012.28 1012.11 1011.89 1011.64 1011.36 1011.08 1010.80 1010.53 1010.29 1010.08 1009.87 1009.66 1009.42 1009.15 1008.83 1008.46 1008.05 1007.63 1007.24 1006.91 1006.68 1006.59 1006.66 1006.90 1007.30 1007.84
1012.72 1012.86 1012.94 1012.98 1012.97 1012.94 1012.88 1012.82 1012.75 1012.66 1012.56 1012.44 1012.28 1012.09 1011.87 1011.62 1011.35 1011.07 1010.81 1010.57 1010.35 1010.15 1009.97 1009.78 1009.57 1009.33 1009.05 1008.73 1008.38 1008.04 1007.72 1007.46 1007.30 1007.27 1007.37 1007.61 1007.99 1008.47
1012.93 1013.07 1013.16 1013.18 1013.17 1013.12 1013.05 1012.96 1012.87 1012.76 1012.65 1012.51 1012.34 1012.14 1011.92 1011.67 1011.40 1011.14 1010.88 1010.65 1010.44 1010.24 1010.06 1009.89 1009.69 1009.47 1009.23 1008.95 1008.66 1008.37 1008.11 1007.91 1007.80 1007.80 1007.91 1008.14 1008.47 1008.89
1013.07 1013.22 1013.31 1013.34 1013.32 1013.27 1013.20 1013.11 1013.02 1012.92 1012.81 1012.67 1012.51 1012.32 1012.10 1011.85 1011.59 1011.33 1011.06 1010.82 1010.60 1010.39 1010.20 1010.01 1009.81 1009.60 1009.36 1009.11 1008.86 1008.61 1008.39 1008.23 1008.15 1008.16 1008.27 1008.47 1008.75 1009.09
1013.13 1013.29 1013.38 1013.42 1013.41 1013.38 1013.33 1013.27 1013.20 1013.13 1013.04 1012.94 1012.80 1012.63 1012.42 1012.18 1011.92 1011.65 1011.37 1011.10 1010.84 1010.60 1010.38 1010.16 1009.94 1009.72 1009.49 1009.25 1009.01 1008.79 1008.60 1008.46 1008.38 1008.39 1008.48 1008.64 1008.87 1009.14
1013.10 1013.25 1013.35 1013.40 1013.42 1013.41 1013.40 1013.39 1013.37 1013.35 1013.31 1013.25 1013.16 1013.02 1012.84 1012.61 1012.35 1012.06 1011.77 1011.46 1011.17 1010.89 1010.62 1010.36 1010.11 1009.87 1009.62 1009.38 1009.15 1008.94 1008.76 1008.63 1008.56 1008.55 1008.62 1008.74 1008.92 1009.13
1012.95 1013.10 1013.19 1013.26 1013.30 1013.33 1013.37 1013.41 1013.46 1013.50 1013.53 1013.53 1013.49 1013.40 1013.26 1013.05 1012.80 1012.51 1012.20 1011.87 1011.54 1011.22 1010.91 1010.61 1010.33 1010.06 1009.80 1009.55 1009.32 1009.12 1008.95 1008.82 1008.75 1008.73 1008.76 1008.85 1008.98 1009.14
1012.68 1012.81 1012.90 1012.96 1013.03 1013.10 1013.18 1013.28 1013.40 1013.51 1013.61 1013.68 1013.71 1013.68 1013.58 1013.41 1013.19 1012.91 1012.60 1012.26 1011.91 1011.57 1011.23 1010.91 1010.61 1010.32 1010.05 1009.80 1009.58 1009.38 1009.21 1009.08 1009.00 1008.97 1008.98 1009.04 1009.13 1009.25
1012.30 1012.39 1012.47 1012.53 1012.61 1012.71 1012.83 1012.99 1013.16 1013.34 1013.51 1013.65 1013.74 1013.77 1013.73 1013.62 1013.44 1013.20 1012.91 1012.59 1012.26 1011.92 1011.58 1011.26 1010.95 1010.66 1010.40 1010.15 1009.92 1009.73 1009.56 1009.43 1009.34 1009.30 1009.29 1009.32 1009.38 1009.46
1011.81 1011.88 1011.93 1011.99 1012.07 1012.19 1012.34 1012.53 1012.75 1012.98 1013.21 1013.41 1013.57 1013.67 1013.69 1013.65 1013.53 1013.35 1013.12 1012.85 1012.56 1012.26 1011.95 1011.65 1011.36 1011.09 1010.82 1010.58 1010.36 1010.16 1010.00 1009.86 1009.76 1009.70 1009.67 1009.67 1009.70 1009.75
1011.25 1011.29 1011.33 1011.38 1011.45 1011.58 1011.75 1011.96 1012.21 1012.47 1012.75 1013.00 1013.22 1013.38 1013.48 1013.52 1013.48 1013.39 1013.24 1013.06 1012.84 1012.59 1012.34 1012.08 1011.82 1011.57 1011.32 1011.08 1010.86 1010.65 1010.47 1010.33 1010.21 1010.13 1010.08 1010.05 1010.05 1010.07
1010.63 1010.66 1010.68 1010.72 1010.80 1010.92 1011.10 1011.32 1011.59 1011.88 1012.18 1012.48 1012.75 1012.98 1013.16 1013.28 1013.34 1013.35 1013.30 1013.22 1013.09 1012.93 1012.74 1012.54 1012.32 1012.08 1011.84 1011.60 1011.37 1011.15 1010.95 1010.78 1010.64 1010.53 1010.46 1010.41 1010.39 1010.38
1009.96 1009.98 1010.01 1010.05 1010.13 1010.26 1010.44 1010.67 1010.95 1011.26 1011.58 1011.91 1012.23 1012.52 1012.78 1012.99 1013.15 1013.27 1013.33 1013.35 1013.32 1013.25 1013.13 1012.98 1012.80 1012.58 1012.34 1012.09 1011.84 1011.59 1011.37 1011.17 1011.00 1010.87 1010.77 1010.71 1010.67 1010.64
Thickness
5689 5689 5688 5689 5691 5693 5694 5693 5689 5687 5690 5698 5700 5704 5705 5705 5704 5704 5704 5702 5701 5699 5697 5696 5696 5695 5696 5697 5699 5700 5702 5705 5707 5709 5710 5710 5708 5706
5682 5682 5681 5682 5684 5686 5687 5688 5687 5683 5681 5687 5689 5692 5693 5695 5695 5695 5695 5694 5692 5690 5688 5687 5687 5687 5687 5689 5691 5694 5697 5699 5702 5705 5707 5707 5707 5704
5674 5674 5674 5675 5676 5678 5680 5681 5680 5679 5675 5678 5681 5683 5683 5683 5685 5685 5685 5685 5683 5681 5679 5678 5678 5678 5678 5680 5682 5686 5690 5694 5698 5701 5703 5704 5703 5702
5664 5665 5666 5668 5667 5668 5671 5672 5672 5672 5669 5667 5669 5671 5672 5673 5674 5674 5675 5676 5674 5672 5670 5669 5668 5668 5669 5671 5674 5678 5683 5688 5692 5696 5699 5700 5699 5698
5654 5654 5655 5656 5657 5659 5661 5661 5662 5664 5662 5659 5658 5659 5660 5661 5662 5663 5663 5663 5664 5662 5661 5659 5659 5659 5660 5662 5665 5669 5674 5681 5686 5690 5693 5695 5695 5693
5644 5644 5645 5645 5646 5649 5649 5649 5651 5652 5651 5649 5647 5646 5646 5647 5648 5649 5649 5650 5650 5651 5650 5650 5650 5650 5650 5652 5655 5659 5665 5671 5677 5682 5686 5688 5688 5687
5634 5635 5635 5635 5636 5637 5638 5637 5638 5638 5638 5636 5633 5632 5631 5631 5632 5634 5634 5637 5637 5637 5638 5639 5640 5641 5642 5642 5645 5648 5654 5660 5667 5673 5677 5680 5680 5679
5627 5627 5628 5628 5627 5627 5627 5627 5627 5625 5622 5621 5619 5618 5616 5618 5620 5621 5622 5623 5623 5626 5626 5628 5629 5630 5631 5632 5633 5638 5642 5649 5655 5661 5666 5669 5670 5669
5620 5621 5623 5620 5619 5619 5619 5619 5618 5617 5615 5613 5609 5607 5607 5607 5608 5610 5611 5611 5611 5613 5616 5616 5618 5619 5621 5621 5623 5626 5631 5635 5641 5646 5651 5654 5656 5656
5613 5613 5612 5610 5610 5610 5613 5613 5612 5610 5609 5607 5605 5602 5601 5600 5599 5600 5601 5602 5603 5603 5605 5604 5606 5608 5611 5612 5613 5615 5618 5622 5626 5631 5634 5637 5640 5640
5606 5604 5605 5603 5602 5605 5607 5605 5604 5601 5601 5600 5599 5597 5594 5592 5590 5589 5588 5588 5588 5590 5592 5592 5595 5598 5601 5602 5604 5606 5608 5611 5613 5616 5619 5622 5623 5624
5598 5596 5595 5596 5596 5596 5597 5596 5593 5592 5593 5594 5592 5590 5587 5584 5581 5579 5576 5574 5574 5576 5579 5581 5584 5587 5590 5593 5596 5598 5600 5601 5603 5604 5606 5608 5609 5610
5597 5593 5590 5590 5590 5590 5590 5588 5585 5584 5586 5586 5584 5581 5578 5574 5572 5570 5569 5567 5564 5564 5568 5570 5572 5575 5577 5582 5587 5589 5592 5594 5595 5595 5596 5597 5598 5600
5594 5589 5586 5585 5585 5585 5585 5583 5582 5581 5581 5578 5574 5570 5567 5564 5563 5562 5561 5561 5560 5559 5560 5561 5562 5564 5567 5571 5575 5580 5583 5586 5588 5588 5590 5590 5590 5592
5588 5585 5582 5581 5580 5579 5580 5579 5577 5575 5572 5568 5564 5561 5559 5557 5556 5554 5553 5553 5554 5554 5553 5554 5554 5557 5559 5562 5565 5570 5573 5576 5579 5581 5583 5585 5586 5587
5583 5580 5578 5577 5576 5575 5575 5575 5572 5569 5565 5561 5558 5555 5553 5550 5547 5545 5543 5543 5542 5543 5545 5546 5547 5549 5550 5553 5556 5558 5562 5565 5568 5572 5575 5577 5579 5581
5581 5578 5576 5576 5575 5575 5575 5574 5570 5565 5561 5557 5553 5549 5546 5543 5540 5538 5535 5534 5532 5532 5533 5535 5537 5540 5542 5543 5545 5547 5550 5553 5557 5561 5564 5566 5569 5572
5578 5577 5577 5577 5577 5576 5574 5570 5565 5560 5556 5553 5548 5543 5540 5537 5534 5531 5529 5525 5523 5524 5524 5524 5525 5527 5531 5532 5532 5535 5538 5541 5545 5549 5553 5556 5558 5561
5574 5575 5577 5578 5577 5574 5571 5567 5562 5557 5552 5549 5544 5539 5535 5532 5528 5525 5521 5517 5515 5515 5515 5515 5514 5514 5515 5518 5522 5524 5527 5530 5533 5537 5540 5544 5547 5550
5573 5573 5575 5576 5574 5571 5568 5564 5559 5554 5550 5545 5541 5536 5531 5527 5523 5518 5515 5510 5508 5507 5506 5506 5505 5504 5505 5507 5511 5514 5516 5519 5521 5524 5528 5532 5536 5538
5571 5572 5574 5574 5572 5569 5565 5561 5557 5552 5547 5543 5539 5533 5528 5524 5518 5513 5509 5505 5501 5499 5497 5497 5497 5498 5500 5501 5502 5504 5507 5509 5510 5512 5515 5519 5522 5525
5572 5572 5574 5573 5570 5567 5563 5559 5556 5551 5546 5541 5538 5532 5526 5520 5514 5509 5504 5499 5495 5492 5489 5489 5489 5490 5490 5490 5491 5493 5496 5498 5500 5501 5502 5504 5506 5509
5572 5573 5573 5571 5569 5565 5562 5558 5554 5550 5546 5541 5536 5530 5524 5517 5511 5505 5499 5494 5489 5485 5481 5479 5479 5479 5479 5480 5480 5482 5485 5487 5489 5490 5491 5493 5495 5497